Terminal Aerodrome Forecast
Issued by NWS

Home | Current Version | Previous Version | Text Only | Print | Product List | Glossary On
Versions: 1 2 3 4 5 6 7 8 9 10 11 12 13 14 15 16 17 18 19 20 21 22 23 24 25 26 27 28
000
FTUS41 KBUF 010900 AAA
TAFIAG
TAF AMD
KIAG 010908Z 0109/0206 16007KT P6SM SCT050 SCT100
     FM011800 22010G18KT P6SM VCSH SCT050 SCT100
     FM012000 22010G18KT P6SM SCT050 SCT100
     FM012300 23005KT P6SM BKN050=

USA.gov is the U.S. government's official web portal to all federal, state and local government web resources and services.